Satellite-Ground Cal/Val Region Overpasses Predictions

Prediction of Satellite NPP Overpassing Cal/Val Region: PacNW

Region Location: (Latitude: 10.00, Longitude: 139.50) to (Latitude: 22.70, Longitude: 165.60).

Table of predicted overpasses for the next 14.0 days since TLE Epoch: 3/25/2019
Interval Starting Time Starting Location Ending Time Ending Location
1 03/25/2019 15:48:59 ( 22.69, 147.62) 03/25/2019 15:52:35 ( 10.01, 144.61)
2 03/26/2019 02:58:04 ( 10.06, 155.14) 03/26/2019 03:01:39 ( 22.68, 152.13)
3 03/26/2019 15:29:56 ( 22.69, 152.38) 03/26/2019 15:33:32 ( 10.01, 149.37)
4 03/27/2019 02:39:01 ( 10.00, 159.91) 03/27/2019 02:42:37 ( 22.68, 156.89)
5 03/27/2019 15:10:54 ( 22.68, 157.14) 03/27/2019 15:14:30 ( 10.00, 154.13)
6 03/28/2019 02:19:58 ( 10.01, 164.67) 03/28/2019 02:23:34 ( 22.69, 161.65)
7 03/28/2019 14:51:51 ( 22.68, 161.90) 03/28/2019 14:55:26 ( 10.05, 158.90)
8 03/29/2019 03:42:26 ( 10.02, 144.05) 03/29/2019 03:46:01 ( 22.65, 141.05)
9 03/29/2019 14:34:03 ( 18.33, 165.60) 03/29/2019 14:36:24 ( 10.05, 163.66)
10 03/29/2019 16:14:19 ( 22.66, 141.29) 03/29/2019 16:16:24 ( 15.33, 139.51)
11 03/30/2019 03:23:23 ( 10.03, 148.81) 03/30/2019 03:26:58 ( 22.65, 145.81)
12 03/30/2019 15:55:16 ( 22.66, 146.04) 03/30/2019 15:58:51 ( 10.03, 143.04)
13 03/31/2019 03:04:21 ( 10.04, 153.57) 03/31/2019 03:07:56 ( 22.66, 150.57)
14 03/31/2019 15:36:14 ( 22.65, 150.80) 03/31/2019 15:39:49 ( 10.03, 147.80)
15 04/01/2019 02:45:19 ( 10.04, 158.33) 04/01/2019 02:48:54 ( 22.66, 155.33)
16 04/01/2019 15:17:11 ( 22.64, 155.56) 04/01/2019 15:20:46 ( 10.02, 152.56)
17 04/02/2019 02:26:16 ( 10.05, 163.09) 04/02/2019 02:29:51 ( 22.67, 160.09)
18 04/02/2019 14:58:08 ( 22.69, 160.34) 04/02/2019 15:01:44 ( 10.02, 157.32)
19 04/03/2019 02:09:57 ( 19.63, 165.60) 04/03/2019 02:10:49 ( 22.68, 164.84)
20 04/03/2019 03:48:43 ( 10.01, 142.49) 04/03/2019 03:52:16 ( 22.51, 139.51)
21 04/03/2019 14:39:05 ( 22.69, 165.10) 04/03/2019 14:42:41 ( 10.01, 162.08)
22 04/03/2019 16:20:35 ( 22.68, 139.72) 04/03/2019 16:20:49 ( 21.86, 139.51)
23 04/04/2019 03:29:40 ( 10.01, 147.24) 04/04/2019 03:33:16 ( 22.70, 144.23)
24 04/04/2019 16:01:33 ( 22.67, 144.48) 04/04/2019 16:05:08 ( 10.05, 141.48)
25 04/05/2019 03:10:38 ( 10.02, 152.00) 04/05/2019 03:14:13 ( 22.65, 149.00)
26 04/05/2019 15:42:30 ( 22.66, 149.24) 04/05/2019 15:46:05 ( 10.04, 146.23)
27 04/06/2019 02:51:35 ( 10.03, 156.76) 04/06/2019 02:55:10 ( 22.66, 153.76)
28 04/06/2019 15:23:28 ( 22.65, 154.00) 04/06/2019 15:27:03 ( 10.03, 150.99)
29 04/07/2019 02:32:33 ( 10.04, 161.52) 04/07/2019 02:36:08 ( 22.66, 158.52)
30 04/07/2019 15:04:25 ( 22.65, 158.75) 04/07/2019 15:08:00 ( 10.03, 155.75)
31 04/08/2019 02:14:21 ( 13.05, 165.59) 04/08/2019 02:17:05 ( 22.67, 163.28)


NCC Satellite Cal/Val Overpasses Prediction Service
